Regional Weather Roundup
Issued by NWS Jackson, KY

Home | Current Version | Previous Version | Graphics & Text | Print | Product List | Glossary On
Versions: 1 2 3 4 5 6 7 8 9 10 11 12 13 14 15 16 17 18 19 20 21 22 23 24 25 26 27 28 29 30 31 32 33 34 35 36 37 38 39 40 41 42 43 44 45 46 47 48 49 50
000
ASUS43 KJKL 030610
RWRJKL

EAST KENTUCKY HOURLY WEATHER ROUNDUP
NATIONAL WEATHER SERVICE JACKSON KY
200 AM EDT FRI JUL 03 2015

NOTE: "FAIR" INDICATES FEW OR NO CLOUDS BELOW 12,000 FEET WITH
NO SIGNIFICANT WEATHER AND/OR OBSTRUCTIONS TO VISIBILITY.

* THESE REPORTS ARE NOT UNDER NWS QUALITY CONTROL AND MAY NOT
  REPORT WEATHER SUCH AS PRECIPITATION AND FOG.

KYZ079-080-083-085-087-088-110-112-115-119-120-030700
...EASTERN KENTUCKY...

CITY           SKY/WX    TMP DP  RH WIND       PRES   REMARKS
JACKSON        MOCLDY    67  66  97 CALM      29.91S
6HR MIN TEMP:  67; 6HR MAX TEMP:  71; 6HR PCP: TRACE;

LONDON         CLOUDY    71  66  84 CALM      29.91S
6HR MIN TEMP:  71; 6HR MAX TEMP:  77; 6HR PCP:  0.18;

SOMERSET*      CLOUDY    70  70 100 CALM      29.91R
MONTICELLO*    FOG       70  70 100 CALM      29.92F VSB 1
6HR MIN TEMP:  69; 6HR MAX TEMP:  71;

MIDDLESBORO*   CLOUDY    71  70  97 CALM      29.93R
6HR MIN TEMP:  69; 6HR MAX TEMP:  73; 6HR PCP:  0.08;

HARLAN APT*      N/A     70  68  94 MISG      29.93F
HAZARD APT*    RAIN      68  68 100 CALM      29.92S
BLACK MTN*       N/A     63  63 100 SW5         N/A
PIKEVILLE APT* CLOUDY    66  66 100 SE5       29.92F
BIG SANDY*     CLOUDY    69  68  99 CALM      29.92S FOG
6HR MIN TEMP:  67; 6HR MAX TEMP:  71;

MOREHEAD APT*  CLOUDY    68  66  94 VRB5      29.92F FOG
$$

KYZ035-036-041-042-044-050-067-078-099-030700
...CENTRAL KENTUCKY...

CITY           SKY/WX    TMP DP  RH WIND       PRES   REMARKS
MT STERLING*   CLOUDY    68  68 100 E5        29.91S
FLEMING/MASON* CLOUDY    66  64  94 E5        29.92F FOG
DANVILLE*      CLOUDY    70  68  94 CALM      29.89F
RICHMOND*      CLOUDY    70  68  94 CALM      29.88F
LEXINGTON      CLOUDY    71  68  90 E3        29.88F
6HR MIN TEMP:  71; 6HR MAX TEMP:  76;

FRANKFORT      CLOUDY    70  68  93 NE3       29.87F
6HR MIN TEMP:  70; 6HR MAX TEMP:  77; 6HR PCP:  0.17;

$$

KYZ091>093-OHZ055-061-077-WVZ005-015-034-035-042-030700
...SOUTHERN OHIO/WEST VIRGINIA...

CITY           SKY/WX    TMP DP  RH WIND       PRES   REMARKS
COVINGTON      CLOUDY    69  65  86 E8        29.91R FOG
COLUMBUS       PTCLDY    62  55  77 NE6       29.95S
DAYTON         MOCLDY    64  56  75 NE6       29.95S
WILMINGTON     CLEAR     64  61  90 NE8       29.92F FOG
HUNTINGTON     CLOUDY    67  65  93 E5        29.91F
CHARLESTON     MOCLDY    65  63  93 E3        29.92F FOG
PINEVILLE*     CLOUDY    67  67 100 MISG      30.00F FOG
BECKLEY        MOCLDY    64  60  87 S6        29.99F
BLUEFIELD      CLOUDY    66  62  87 SE3       30.01F
$$

VAZ002-007-008-TNZ017-027-036-066-071-030700
...SOUTHWEST VIRGINIA/EAST TENNESSEE...

CITY           SKY/WX    TMP DP  RH WIND       PRES   REMARKS
WISE*          CLOUDY    68  66  94 S3        30.00S
JONESVILLE*      N/A    N/A N/A N/A MISG        N/A
ABINGDON*      CLOUDY    68  68  98 CALM      29.97F
BRISTOL        CLOUDY    68  67  96 S3        29.94F
KNOXVILLE      CLOUDY    72  69  90 S8        29.90F
OAK RIDGE      HVY RAIN  72  69  90 CALM      29.93S FOG
CROSSVILLE     LGT RAIN  69  66  90 W5        29.96F FOG
NASHVILLE      CLOUDY    74  73  97 SW6       29.89F
$$

...KEY TO REMARKS...
VSB - VISIBILITY IN MILES
WCI - WIND CHILL INDEX
HX  - HEAT INDEX

$$



USA.gov is the U.S. government's official web portal to all federal, state and local government web resources and services.